Weather History for Aspen, CO

Change the Weather History Date:

Sunday, March 16, 2014

  Actual Average Record
Temperature  
Mean Temperature 31 °F 31 °F  
Max Temperature 49 °F 43 °F 59 °F (2012)
Min Temperature 13 °F 19 °F 3 °F (2008)
Degree Days  
Heating Degree Days 34 34  
Month to date heating degree days 516 584  
Since 1 July heating degree days 6647 6903  
Cooling Degree Days 0 0  
Month to date cooling degree days 0 0  
Year to date cooling degree days 0 0  
Moisture  
Dew Point 11 °F    
Average Humidity 45    
Maximum Humidity 67    
Minimum Humidity 23    
Precipitation  
Precipitation 0.00 in 0.04 in 0.25 in (1984)
Month to date precipitation 0.72 0.62  
Year to date precipitation 3.50 2.86  
Sea Level Pressure  
Sea Level Pressure 30.31 in    
Wind  
Wind Speed 6 mph (SSW)    
Max Wind Speed 14 mph    
Max Gust Speed 18 mph    
Visibility 10 miles    
Events      
T = Trace of Precipitation, MM = Missing Value Source: NWS Daily Summary

Daily Weather History Graph

Daily Weather History Graph

Search for Another Location

Airport:

Trip Planner

Search our weather history database for the weather conditions in past years. The results will help you decide how hot, cold, wet, or windy it might be!

Date:

Astronomy

Mar. 16, 2014 Rise Set
Actual Time 7:17 AM MDT 7:15 PM MDT
Civil Twilight 6:50 AM MDT 7:42 PM MDT
Nautical Twilight 6:19 AM MDT 8:13 PM MDT
Astronomical Twilight 5:47 AM MDT 8:44 PM MDT
Moon 7:35 PM MDT (3/16) 7:02 AM MDT (3/16)
Length of Visible Light 12h 51m
Length of Day
11h 58m
Full, 100% of the Moon is Illuminated
Mar 16
Full
Mar 23
Last Quarter
Mar 30
New
Apr 7
First Quarter
Apr 15
Full

Hourly Weather History & Observations

Time (MDT) Temp. Windchill Dew Point Humidity Pressure Visibility Wind Dir Wind Speed Gust Speed Precip Events Conditions
12:53 AM 21.9 °F 14.5 °F 9.0 °F 58% 30.39 in 10.0 mi SSW 5.8 mph - N/A   Clear
1:53 AM 21.0 °F 12.4 °F 9.0 °F 60% 30.39 in 10.0 mi SSW 6.9 mph - N/A   Overcast
2:53 AM 18.0 °F 8.7 °F 8.1 °F 65% 30.42 in 10.0 mi SSW 6.9 mph - N/A   Partly Cloudy
3:53 AM 17.1 °F 7.6 °F 7.0 °F 65% 30.41 in 10.0 mi SW 6.9 mph - N/A   Clear
4:53 AM 16.0 °F 7.4 °F 6.1 °F 65% 30.42 in 10.0 mi South 5.8 mph - N/A   Clear
5:53 AM 16.0 °F 6.3 °F 7.0 °F 68% 30.43 in 10.0 mi SSW 6.9 mph - N/A   Clear
6:53 AM 16.0 °F 4.4 °F 6.1 °F 65% 30.44 in 10.0 mi SSW 9.2 mph - N/A   Clear
7:53 AM 16.0 °F 6.3 °F 6.1 °F 65% 30.46 in 10.0 mi SSW 6.9 mph - N/A   Clear
8:53 AM 21.0 °F 14.6 °F 8.1 °F 57% 30.45 in 10.0 mi South 4.6 mph - N/A   Clear
9:53 AM 26.1 °F 21.9 °F 8.1 °F 47% 30.43 in 10.0 mi SW 3.5 mph - N/A   Clear
10:53 AM 33.1 °F - 10.0 °F 38% 30.39 in 10.0 mi Calm Calm - N/A   Clear
11:53 AM 39.0 °F 35.7 °F 10.0 °F 30% 30.34 in 10.0 mi Variable 4.6 mph - N/A   Clear
12:53 PM 41.0 °F 38.0 °F 12.0 °F 31% 30.28 in 10.0 mi Variable 4.6 mph - N/A   Clear
1:53 PM 45.0 °F 43.5 °F 12.9 °F 27% 30.24 in 10.0 mi Variable 3.5 mph - N/A   Clear
2:53 PM 46.0 °F 43.1 °F 12.9 °F 26% 30.23 in 10.0 mi Variable 5.8 mph - N/A   Clear
3:53 PM 46.9 °F - 10.9 °F 23% 30.20 in 10.0 mi North 6.9 mph - N/A   Clear
4:53 PM 48.0 °F - 12.0 °F 24% 30.18 in 10.0 mi North 8.1 mph - N/A   Clear
5:53 PM 46.9 °F - 12.9 °F 25% 30.17 in 10.0 mi North 8.1 mph - N/A   Clear
6:53 PM 43.0 °F 38.2 °F 12.9 °F 30% 30.19 in 10.0 mi NNW 8.1 mph - N/A   Clear
7:53 PM 39.9 °F - 15.1 °F 36% 30.21 in 10.0 mi Calm Calm - N/A   Clear
8:53 PM 34.0 °F 28.0 °F 17.1 °F 50% 30.22 in 10.0 mi SSW 6.9 mph - N/A   Clear
9:53 PM 32.0 °F 25.6 °F 17.1 °F 54% 30.20 in 10.0 mi SSW 6.9 mph - N/A   Clear
10:53 PM 32.0 °F 26.4 °F 17.1 °F 54% 30.14 in 10.0 mi South 5.8 mph - N/A   Clear
11:53 PM 30.9 °F 27.5 °F 16.0 °F 54% 30.10 in 10.0 mi SSW 3.5 mph - N/A   Clear